Weather in Novotarmanskiy

Russia / Tyumen Oblast     57°16′58″N   65°13′31″E
temp.,
°C
wind,
m/s
gust,
m/s
humid.,
%
clouds,
%
prec.,
mm/h
press.,
hPa
HPBL,
m
18 april, sun
sun1823:00+4wnw336423 0.0 101847
02:00+4w4869100 0.0 1015185
05:00+4w61370100 0.0 1013463
08:00+5wnw81371100 0.0 10121217
11:00+1n11135599 0.1 10171262
14:00+1nne9114198 0.0 10221860
17:00+1nne810295 0.0 10261992
20:00−2nne610390 0.0 10291209
19 april, mon
mon1923:00−4nne49462 0.0 10311369
02:00−5nne48485 0.0 10321220
05:00−6n37490 0.0 10341076
08:00−4n464475 0.0 10351352
11:00−2n573180 0.0 10351869
14:00+1n5728100 0.0 10342320
17:00+2n562793 0.0 10332317
20:00−2nne35430 0.0 103472
20 april, tue
tue2023:00−3ne22500 0.0 103433
02:00−4ssw22495 0.0 103424
05:00−4wsw35485 0.0 1033141
08:000wsw583560 0.0 1032461
11:00+5w683279 0.0 10291423
14:00+8wnw79325 0.0 10271625
17:00+8nw710375 0.0 10251780
20:00+5wnw4952100 0.0 1025148
21 april, wed
wed2123:00+3wnw4126690 0.0 1026242
02:00+2nnw397951 0.0 1027192
05:000nnw38915 0.0 1029167
08:00+3n467133 0.0 1031532
11:00+6n46495 0.0 10321142
14:00+9nne45383 0.0 10321475
17:00+9ne44350 0.0 10331566
20:00+6e33490 0.0 103542
22 april, thu
thu2223:00+4se34550 0.0 103659
02:00+2s33600 0.0 103738
05:00+1s33642 0.0 103837
08:00+5s34522 0.0 1039247
11:00+9s34395 0.0 10381028
14:00+12s44365 0.0 10371583
17:00+13s44355 0.0 10371789
20:00+9sse47525 0.0 1037104